TimePST,TemperatureF,Dew PointF,Humidity,Sea Level PressureIn,VisibilityMPH,Wind Direction,Wind SpeedMPH,Gust SpeedMPH,PrecipitationIn,Events,Conditions,WindDirDegrees,DateUTC
12:53 AM,42.1,39.9,92,30.31,10.0,Calm,Calm,-,N/A,,Clear,0,2013-03-02 08:53:00
1:53 AM,44.1,39.9,85,30.30,10.0,Calm,Calm,-,N/A,,Clear,0,2013-03-02 09:53:00
2:53 AM,41.0,39.2,93,30.27,10.0,Calm,Calm,-,N/A,,Clear,0,2013-03-02 10:53:00
3:53 AM,41.0,39.0,93,30.27,10.0,Calm,Calm,-,N/A,,Clear,0,2013-03-02 11:53:00
4:27 AM,39.2,37.4,93,30.25,10.0,SE,3.5,-,N/A,,Partly Cloudy,140,2013-03-02 12:27:00
4:53 AM,41.0,37.9,89,30.26,10.0,Calm,Calm,-,N/A,,Clear,0,2013-03-02 12:53:00
5:04 AM,42.8,39.2,87,30.26,10.0,Calm,Calm,-,N/A,,Partly Cloudy,0,2013-03-02 13:04:00
5:53 AM,41.0,37.9,89,30.26,10.0,Calm,Calm,-,N/A,,Mostly Cloudy,0,2013-03-02 13:53:00
6:53 AM,41.0,37.9,89,30.26,10.0,Calm,Calm,-,N/A,,Overcast,0,2013-03-02 14:53:00
7:53 AM,42.1,39.0,89,30.25,10.0,Calm,Calm,-,N/A,,Overcast,0,2013-03-02 15:53:00
8:53 AM,44.1,41.0,89,30.25,7.0,Calm,Calm,-,N/A,,Mostly Cloudy,0,2013-03-02 16:53:00
9:53 AM,45.0,41.0,86,30.26,9.0,Calm,Calm,-,N/A,,Overcast,0,2013-03-02 17:53:00
10:07 AM,46.4,41.0,81,30.25,10.0,Calm,Calm,-,N/A,,Scattered Clouds,0,2013-03-02 18:07:00
10:53 AM,48.0,42.1,80,30.25,10.0,Calm,Calm,-,N/A,,Partly Cloudy,0,2013-03-02 18:53:00
11:53 AM,50.0,42.1,74,30.23,10.0,Calm,Calm,-,N/A,,Clear,0,2013-03-02 19:53:00
12:53 PM,52.0,43.0,71,30.22,10.0,Calm,Calm,-,N/A,,Clear,0,2013-03-02 20:53:00
1:53 PM,54.0,44.1,69,30.19,10.0,Calm,Calm,-,N/A,,Overcast,0,2013-03-02 21:53:00
2:53 PM,54.0,43.0,66,30.18,10.0,Calm,Calm,-,N/A,,Overcast,0,2013-03-02 22:53:00
3:53 PM,54.0,44.1,69,30.18,10.0,Calm,Calm,-,N/A,,Overcast,0,2013-03-02 23:53:00
4:53 PM,55.0,44.1,67,30.18,10.0,Calm,Calm,-,N/A,,Overcast,0,2013-03-03 00:53:00
5:53 PM,53.1,45.0,74,30.17,10.0,Calm,Calm,-,N/A,,Overcast,0,2013-03-03 01:53:00
6:53 PM,53.1,45.0,74,30.18,10.0,Calm,Calm,-,N/A,,Overcast,0,2013-03-03 02:53:00
7:53 PM,52.0,46.0,80,30.19,10.0,NW,5.8,-,N/A,,Overcast,310,2013-03-03 03:53:00
8:53 PM,50.0,46.9,89,30.20,10.0,NW,4.6,-,0.01,Rain,Light Rain,310,2013-03-03 04:53:00
9:53 PM,50.0,46.9,89,30.20,10.0,Calm,Calm,-,0.00,Rain,Light Rain,0,2013-03-03 05:53:00
10:53 PM,48.9,46.0,90,30.18,10.0,SSE,8.1,-,0.01,,Overcast,160,2013-03-03 06:53:00
11:53 PM,48.0,45.0,89,30.18,10.0,WNW,3.5,-,0.00,,Overcast,300,2013-03-03 07:53:00